Location: Czu?�w
(50.1404°N, 18.9919°E)
Time: 12:17:28
(UTC+00:00)

FALCON 9 DEB - Pass Details

Date: 27 October 2020
Orbit: 427 x 438 km, 53.0° (Epoch: 24 November)

Event Time Altitude Azimuth Distance (km) Brightness Sun altitude
Rises 16:40:30 0° 282° (WNW) 2,399 8.5 -12.0°
Reaches altitude 10° 16:42:39 10° 287° (WNW) 1,530 7.0 -12.4°
Maximum altitude 16:46:01 52° 6° (N) 543 3.5 -12.9°
Enters shadow 16:47:49 24° 73° (ENE) 939 4.2 -13.2°
